Regional Weather Roundup
Issued by NWS Charleston, SC

Current Version | Previous Version | Graphics & Text | Print | Product List | Glossary On
Versions: 1 2 3 4 5 6 7 8 9 10 11 12 13 14 15 16 17 18 19 20 21 22 23 24 25 26 27 28 29 30 31 32 33 34 35 36 37 38 39 40 41 42 43 44 45 46 47 48 49 50
000 ASUS42 KCHS 281828 RWRCHS REGIONAL WEATHER ROUNDUP NATIONAL WEATHER SERVICE CHARLESTON SC 200 PM EDT THU APR 28 2016 NOTE: "FAIR" INDICATES FEW OR NO CLOUDS BELOW 12,000 FEET WITH NO SIGNIFICANT WEATHER AND/OR OBSTRUCTIONS TO VISIBILITY. NOT ALL STATIONS ARE QUALITY CONTROLLED. USE DATA WITH CAUTION... ESPECIALLY DEWPOINT OBSERVATIONS. SCZ027-030-031-034>040-042>050-281900- ...SOUTHEAST SOUTH CAROLINA... CITY SKY/WX TMP DP RH WIND PRES REMARKS N CHARLESTON PTSUNNY 86 70 58 W10 29.93F HX 90 6HR MIN TEMP: 72; 6HR MAX TEMP: 86; 6HR PCP: TRACE; WATERFRONT PRK N/A 77 70 79 S9 29.93F MOUNT PLEASANT FAIR 82 72 69 S10 29.95S JOHNS ISLAND FAIR 81 72 74 S12 29.94F PINOPOLIS N/A 81 70 69 CALM 29.87F MONCKS CORNER MOCLDY 82 61 47 SW9 29.92F SUMMERVILLE FAIR 88 70 55 S3 29.93F HX 92 BEAUFORT MCAS MOSUNNY 85 70 60 SE6 29.94F 6HR MIN TEMP: 71; 6HR MAX TEMP: 88; 6HR PCP: TRACE; BEAUFORT ARPT FAIR 82 68 61 S12 29.93F HILTON HEAD IS MOSUNNY 86 70 58 S14 29.95F HX 90 WALTERBORO PTCLDY 88 68 51 S7 29.93F HX 91 ALLENDALE FAIR 86 68 54 VRB6 29.92F ...SOUTHERN MIDLANDS AND PEE DEE... CITY SKY/WX TMP DP RH WIND PRES REMARKS GEORGETOWN MOCLDY 81 66 61 E7 29.94F KINGSTREE FAIR 82 61 47 SW9 29.93F ORANGEBURG PTSUNNY 84 67 56 W9 29.93F 6HR MIN TEMP: 67; 6HR MAX TEMP: 85; BARNWELL MOCLDY 86 73 66 W8 29.93F HX 93 AIKEN FAIR 82 64 54 SW13G18 29.96F MANNING NOT AVBL COLUMBIA MOSUNNY 84 65 52 SW13 29.91F 6HR MIN TEMP: 68; 6HR MAX TEMP: 84; 6HR PCP: TRACE; SUMTER MOSUNNY 82 68 62 SW12 29.91F 6HR MIN TEMP: 67; 6HR MAX TEMP: 82; 6HR PCP: TRACE; FLORENCE MOSUNNY 85 66 53 SW14G23 29.92F 6HR MIN TEMP: 69; 6HR MAX TEMP: 85; MYRTLE BEACH MOSUNNY 79 64 61 S12 29.96F N MYRTLE BEACH SUNNY 75 67 76 S12 29.94F 6HR MIN TEMP: 70; 6HR MAX TEMP: 76; 6HR PCP: 0.09; $$ GAZ063-065-086>088-099>101-113>116-118-119-134>141-150-281900- ...SOUTHEAST GEORGIA... CITY SKY/WX TMP DP RH WIND PRES REMARKS SAVANNAH ARPT PTSUNNY 88 67 49 W7 29.94F HX 91 6HR MIN TEMP: 70; 6HR MAX TEMP: 88; HUNTER AAF MOSUNNY 86 70 59 SW8 29.92F HX 91 6HR MIN TEMP: 71; 6HR MAX TEMP: 87; FORT STEWART PTSUNNY 85 68 55 W6 29.93F 6HR MIN TEMP: 69; 6HR MAX TEMP: 86; 6HR PCP: TRACE; STATESBORO PTSUNNY 87 73 63 W8 29.94F HX 94 SYLVANIA RAIN 78 73 84 CALM 29.95S CLAXTON FAIR 84 71 64 SW8 29.95F ...CSRA...CENTRAL AND FAR SOUTHEAST GEORGIA... CITY SKY/WX TMP DP RH WIND PRES REMARKS THOMSON MOSUNNY 84 70 62 SW5 29.97F AUGUSTA-BUSH CLOUDY 82 69 64 SW8G20 29.92F 6HR MIN TEMP: 67; 6HR MAX TEMP: 85; AUGUSTA-DANIEL PTSUNNY 84 66 54 VRB6 29.94F SWAINSBORO MOCLDY 82 68 61 SW3 29.96S THUNDER VIDALIA TSTM 81 70 69 SW5 29.97R EASTMAN MOCLDY 83 69 61 W8 29.98F HAZLEHURST TSTM 72 72 100 N9G17 29.97R ALMA PTSUNNY 83 69 62 S8 29.95F 6HR MIN TEMP: 69; 6HR MAX TEMP: 84; WAYCROSS MOSUNNY 85 70 61 W5 29.97S JESUP MOCLDY 88 70 55 W6 29.96S HX 92 BAXLEY FAIR 82 70 65 CALM 29.96S THUNDER BRUNSWICK MOSUNNY 91 68 46 SW8 29.96F HX 95 SAINT SIMONS SUNNY 81 69 67 SE9 29.96F 6HR MIN TEMP: 71; 6HR MAX TEMP: 82; $$ SCZ027-028-034-036>038-045-046-048>050-GAZ119-141-281900- ...LAKE AND SUPPLEMENTAL COASTAL OBSERVATIONS... STATION/POSITION TIME TEMP WIND PRES WAVE SWELL AIR SEA DIR/SP/G HT/PER HT/PER/DIR (UTC) (F) (DEG/KT/KT) (MB) (FT/S) (FT/S/D) WINYAH BAY 1745 75 150/ 10 1013.0F LAKE MURRAY 1700 75 220/ 11/ 15 1013.5F ACE BASIN NERRS 1700 80 170/ 1 1015.0S FORT PULASKI 1800 79 71 160/ 7/ 11 1014.5F SAPELO ISLAND 1800 85 160/ 10 1014.0F $$ ANZ835-935-AMZ111-154-330-350-352-354-370-450-454-472-281900- ...C-MAN AND BUOY OBSERVATIONS... STATION/POSITION TIME TEMP WIND PRES WAVE SWELL AIR SEA DIR/SP/G HT/PER HT/PER/DIR (UTC) (F) (DEG/KT/KT) (MB) (FT/S) (FT/S/D) BUOY 41004 1750 72 72 230/ 10/ 10 1014.6F 3/ 5 2/ 5 BUOY 41008 NOT AVBL FOLLY BEACH CMAN 1800 74 200/ 9/ 11 1014.6F CAPERS NEARSHORE 1808 71 71 200/ 10/ 14 1014.2F FRIPP NEARSHORE 1808 72 72 190/ 12/ 14 1013.7F STATION/POSITION TIME TEMP WIND PRES WAVE SWELL AIR SEA DIR/SP/G HT/PER HT/PER/DIR (UTC) (F) (DEG/KT/KT) (MB) (FT/S) (FT/S/D) 5E ST. MARYS GA 1721 72 N/A 2/ 4 FRYING PAN BUOY 1800 71 70 220/ 10/ 12 1014.5R BUOY 41025 1750 73 72 220/ 16/ 19 1013.6F 3/ 6 2/140/ 9 CAPE LOOKOUT NC 1800 73 220/ 10/ 12 1013.4F BUOY 41002 1750 72 72 180/ 8/ 8 1017.4F 2/10 2/ 40/10 BUOY 41010 1720 76 77 170/ 8/ 10 1016.9F ST AUGUSTINE FL 1800 74 71 130/ 11/ 12 1016.1F $$

USA.gov is the U.S. government's official web portal to all federal, state and local government web resources and services.